H1 CPF 2 NER 2020 12 9 9 344 01 glonass133 H2 1403201 9133 40001 2020 12 9 0 0 0 2020 12 12 23 45 0 900 1 1 0 0 0 1 H9 10 0 59192 0.00000 0 -7144654.946 -8083317.095 -23109770.513 10 0 59192 900.00000 0 -5699784.448 -10506785.120 -22532141.391 10 0 59192 1800.00000 0 -4488152.117 -12945708.647 -21516854.072 10 0 59192 2700.00000 0 -3525658.267 -15331510.626 -20083741.478 10 0 59192 3600.00000 0 -2815376.721 -17595192.966 -18260732.633 10 0 59192 4500.00000 0 -2347636.196 -19670057.821 -16083304.360 10 0 59192 5400.00000 0 -2100646.427 -21494346.257 -13593788.313 10 0 59192 6300.00000 0 -2041641.310 -23013684.978 -10840546.747 10 0 59192 7200.00000 0 -2128489.539 -24183239.779 -7877033.081 10 0 59192 8100.00000 0 -2311703.854 -24969486.635 -4760755.337 10 0 59192 9000.00000 0 -2536763.375 -25351527.283 -1552162.391 10 0 59192 9900.00000 0 -2746650.573 -25321895.005 1686525.378 10 0 59192 10800.00000 0 -2884495.489 -24886817.633 4892518.583 10 0 59192 11700.00000 0 -2896215.444 -24065927.356 8003671.351 10 0 59192 12600.00000 0 -2733038.787 -22891429.866 10959680.493 10 0 59192 13500.00000 0 -2353806.140 -21406767.884 13703248.465 10 0 59192 14400.00000 0 -1726951.935 -19664834.963 16181187.993 10 0 59192 15300.00000 0 -832082.504 -17725814.061 18345447.406 10 0 59192 16200.00000 0 338916.300 -15654730.793 20154037.408 10 0 59192 17100.00000 0 1781289.402 -13518822.830 21571841.956 10 0 59192 18000.00000 0 3477366.665 -11384834.534 22571297.991 10 0 59192 18900.00000 0 5397064.424 -9316348.734 23132931.319 10 0 59192 19800.00000 0 7498915.260 -7371266.006 23245738.435 10 0 59192 20700.00000 0 9731584.911 -5599535.759 22907406.817 10 0 59192 21600.00000 0 12035815.073 -4041233.018 22124369.039 10 0 59192 22500.00000 0 14346712.946 -2725060.619 20911688.987 10 0 59192 23400.00000 0 16596293.618 -1667339.054 19292781.452 10 0 59192 24300.00000 0 18716170.545 -871526.022 17298969.430 10 0 59192 25200.00000 0 20640282.621 -328285.755 14968886.531 10 0 59192 26100.00000 0 22307544.184 -16105.227 12347735.019 10 0 59192 27000.00000 0 23664306.967 97568.700 9486412.992 10 0 59192 27900.00000 0 24666530.354 54719.312 6440527.023 10 0 59192 28800.00000 0 25281568.040 -95254.481 3269309.306 10 0 59192 29700.00000 0 25489495.142 -297871.386 34460.591 10 0 59192 30600.00000 0 25283919.059 -496120.035 -3201058.066 10 0 59192 31500.00000 0 24672239.174 -633121.084 -6374260.136 10 0 59192 32400.00000 0 23675344.034 -654784.890 -9423369.944 10 0 59192 33300.00000 0 22326758.604 -512350.661 -12289035.189 10 0 59192 34200.00000 0 20671277.705 -164698.059 -14915490.841 10 0 59192 35100.00000 0 18763143.642 419668.004 -17251650.831 10 0 59192 36000.00000 0 16663845.268 1261044.521 -19252105.662 10 0 59192 36900.00000 0 14439631.684 2367436.827 -20878006.179 10 0 59192 37800.00000 0 12158845.476 3733991.215 -22097816.394 10 0 59192 38700.00000 0 9889187.600 5342978.112 -22887921.171 10 0 59192 39600.00000 0 7695028.478 7164326.831 -23233077.553 10 0 59192 40500.00000 0 5634877.364 9156689.714 -23126701.832 10 0 59192 41400.00000 0 3759114.893 11268991.281 -22570987.654 10 0 59192 42300.00000 0 2108082.387 13442397.721 -21576853.693 10 0 59192 43200.00000 0 710606.124 15612624.640 -20163722.658 10 0 59192 44100.00000 0 -416983.612 17712487.056 -18359136.443 10 0 59192 45000.00000 0 -1271299.564 19674585.469 -16198215.298 10 0 59192 45900.00000 0 -1861793.975 21434016.386 -13722971.690 10 0 59192 46800.00000 0 -2210110.707 22930994.677 -10981492.221 10 0 59192 47700.00000 0 -2348921.936 24113278.726 -8027003.457 10 0 59192 48600.00000 0 -2320299.760 24938297.675 -4916839.698 10 0 59192 49500.00000 0 -2173692.467 25374892.381 -1711332.532 10 0 59192 50400.00000 0 -1963591.530 25404597.771 1527356.342 10 0 59192 51300.00000 0 -1746988.323 25022413.458 4736436.551 10 0 59192 52200.00000 0 -1580728.167 24237030.684 7853701.674 10 0 59192 53100.00000 0 -1518873.492 23070506.371 10818729.670 10 0 59192 54000.00000 0 -1610187.459 21557397.968 13574048.207 10 0 59192 54900.00000 0 -1895844.176 19743395.154 16066242.712 10 0 59192 55800.00000 0 -2407462.169 17683505.256 18246986.109 10 0 59192 56700.00000 0 -3165544.208 15439867.599 20073970.888 10 0 59192 57600.00000 0 -4178389.704 13079287.238 21511726.055 10 0 59192 58500.00000 0 -5441526.260 10670589.989 22532303.596 10 0 59192 59400.00000 0 -6937685.423 8281907.984 23115821.641 10 0 59192 60300.00000 0 -8637325.274 5978007.645 23250853.988 10 0 59192 61200.00000 0 -10499679.671 3817770.429 22934658.365 10 0 59192 62100.00000 0 -12474292.220 1851930.289 22173238.704 10 0 59192 63000.00000 0 -14502972.775 121161.328 20981239.517 10 0 59192 63900.00000 0 -16522096.392 -1345405.068 19381673.555 10 0 59192 64800.00000 0 -18465150.094 -2531172.173 17405486.916 10 0 59192 65700.00000 0 -20265422.032 -3432537.644 15090968.875 10 0 59192 66600.00000 0 -21858720.943 -4058801.887 12483016.780 10 0 59192 67500.00000 0 -23186012.070 -4431529.043 9632269.407 10 0 59192 68400.00000 0 -24195858.541 -4583387.718 6594124.911 10 0 59192 69300.00000 0 -24846564.858 -4556520.620 3427662.311 10 0 59192 70200.00000 0 -25107931.373 -4400512.589 194487.637 10 0 59192 71100.00000 0 -24962544.771 -4170043.782 -3042472.273 10 0 59192 72000.00000 0 -24406549.155 -3922328.450 -6220203.845 10 0 59192 72900.00000 0 -23449864.425 -3714449.105 -9276843.590 10 0 59192 73800.00000 0 -22115842.156 -3600700.491 -12152892.394 10 0 59192 74700.00000 0 -20440373.283 -3630057.297 -14792382.372 10 0 59192 75600.00000 0 -18470485.241 -3843874.230 -17143972.666 10 0 59192 76500.00000 0 -16262487.847 -4273916.932 -19161952.188 10 0 59192 77400.00000 0 -13879746.330 -4940807.900 -20807129.408 10 0 59192 78300.00000 0 -11390175.335 -5852953.692 -22047592.006 10 0 59192 79200.00000 0 -8863559.186 -7005999.078 -22859321.987 10 0 59192 80100.00000 0 -6368810.612 -8382831.326 -23226654.947 10 0 59192 81000.00000 0 -3971282.178 -9954134.528 -23142575.401 10 0 59192 81900.00000 0 -1730241.947 -11679470.784 -22608843.314 10 0 59192 82800.00000 0 303382.290 -13508842.867 -21635950.220 10 0 59192 83700.00000 0 2088897.590 -15384673.035 -20242906.503 10 0 59192 84600.00000 0 3597301.957 -17244115.319 -18456864.525 10 0 59192 85500.00000 0 4812242.997 -19021604.745 -16312585.303 10 0 59193 0.00000 0 5730441.206 -20651537.199 -13851759.366 10 0 59193 900.00000 0 6361562.060 -22070968.094 -11122194.607 10 0 59193 1800.00000 0 6727544.544 -23222217.796 -8176887.819 10 0 59193 2700.00000 0 6861415.270 -24055274.153 -5072996.605 10 0 59193 3600.00000 0 6805640.382 -24529893.299 -1870732.352 10 0 59193 4500.00000 0 6610085.021 -24617310.012 1367804.709 10 0 59193 5400.00000 0 6329667.464 -24301486.831 4579825.851 10 0 59193 6300.00000 0 6021807.287 -23579849.616 7703066.547 10 0 59193 7200.00000 0 5743775.434 -22463478.856 10676988.129 10 0 59193 8100.00000 0 5550058.075 -20976748.590 13443945.457 10 0 59193 9000.00000 0 5489845.406 -19156427.766 15950298.375 10 0 59193 9900.00000 0 5604751.202 -17050281.127 18147445.838 10 0 59193 10800.00000 0 5926859.251 -14715227.323 19992763.250 10 0 59193 11700.00000 0 6477179.133 -12215130.186 21450425.480 10 0 59193 12600.00000 0 7264576.751 -9618314.178 22492100.063 10 0 59193 13500.00000 0 8285225.377 -6994906.287 23097497.648 10 0 59193 14400.00000 0 9522601.384 -4414113.716 23254769.233 10 0 59193 15300.00000 0 10948026.273 -1941549.469 22960742.448 10 0 59193 16200.00000 0 12521733.932 363284.034 22220991.990 10 0 59193 17100.00000 0 14194420.229 2449249.582 21049742.196 10 0 59193 18000.00000 0 15909211.688 4275474.793 19469602.787 10 0 59193 18900.00000 0 17603972.355 5812818.102 17511141.784 10 0 59193 19800.00000 0 19213853.383 7044840.267 15212302.732 10 0 59193 20700.00000 0 20673979.125 7968240.876 12617676.465 10 0 59193 21600.00000 0 21922157.286 8592741.791 9777640.591 10 0 59193 22500.00000 0 22901499.015 8940422.582 6747382.747 10 0 59193 23400.00000 0 23562838.030 9044536.233 3585826.430 10 0 59193 24300.00000 0 23866845.929 8947855.584 354480.391 10 0 59193 25200.00000 0 23785753.338 8700621.113 -2883765.473 10 0 59193 26100.00000 0 23304603.084 8358177.828 -6065873.336 10 0 59193 27000.00000 0 22421981.391 7978402.540 -9129894.667 10 0 59193 27900.00000 0 21150195.377 7619031.823 -12016186.179 10 0 59193 28800.00000 0 19514888.713 7335005.213 -14668579.599 10 0 59193 29700.00000 0 17554111.357 7175937.494 -17035481.502 10 0 59193 30600.00000 0 15316882.426 7183828.173 -19070881.177 10 0 59193 31500.00000 0 12861306.792 7391105.898 -20735246.456 10 0 59193 32400.00000 0 10252324.627 7819091.037 -21996290.192 10 0 59193 33300.00000 0 7559188.348 8476941.606 -22829592.834 10 0 59193 34200.00000 0 4852772.579 9361127.028 -23219069.606 10 0 59193 35100.00000 0 2202829.232 10455451.783 -23157274.061 10 0 59193 36000.00000 0 -324698.320 11731627.742 -22645532.990 10 0 59193 36900.00000 0 -2670190.887 13150370.939 -21693910.913 10 0 59193 37800.00000 0 -4782595.323 14662976.546 -20321005.592 10 0 59193 38700.00000 0 -6621300.794 16213305.966 -18553579.107 10 0 59193 39600.00000 0 -8157572.954 17740102.686 -16426032.047 10 0 59193 40500.00000 0 -9375488.163 19179540.006 -13979731.233 10 0 59193 41400.00000 0 -10272330.748 20467894.037 -11262204.048 10 0 59193 42300.00000 0 -10858438.598 21544230.188 -8326215.014 10 0 59193 43200.00000 0 -11156505.421 22352990.781 -5228742.387 10 0 59193 44100.00000 0 -11200370.565 22846375.588 -2029874.481 10 0 59193 45000.00000 0 -11033348.544 22986415.623 1208352.954 10 0 59193 45900.00000 0 -10706169.637 22746653.418 4423155.936 10 0 59193 46800.00000 0 -10274618.967 22113359.315 7552214.945 10 0 59193 47700.00000 0 -9796973.989 21086232.745 10534877.755 10 0 59193 48600.00000 0 -9331348.558 19678558.852 13313329.384 10 0 59193 49500.00000 0 -8933055.514 17916813.458 15833706.917 10 0 59193 50400.00000 0 -8652098.781 15839732.278 18047137.965 10 0 59193 51300.00000 0 -8530900.476 13496882.412 19910683.253 10 0 59193 52200.00000 0 -8602358.625 10946794.629 21388165.658 10 0 59193 53100.00000 0 -8888317.291 8254733.115 22450870.115 10 0 59193 54000.00000 0 -9398513.786 5490194.165 23078101.311 10 0 59193 54900.00000 0 -10130047.864 2724236.430 23257588.606 10 0 59193 55800.00000 0 -11067396.142 26752.414 22985730.263 10 0 59193 56700.00000 0 -12182972.409 -2536206.665 22267672.019 10 0 59193 57600.00000 0 -13438211.782 -4904942.579 21117217.821 10 0 59193 58500.00000 0 -14785134.740 -7028354.660 19556573.593 10 0 59193 59400.00000 0 -16168326.844 -8865824.453 17615927.977 10 0 59193 60300.00000 0 -17527252.327 -10388662.299 15332876.966 10 0 59193 61200.00000 0 -18798805.177 -11581055.584 12751702.548 10 0 59193 62100.00000 0 -19919990.916 -12440479.136 9922518.399 10 0 59193 63000.00000 0 -20830626.194 -12977550.704 6900298.523 10 0 59193 63900.00000 0 -21475941.896 -13215337.726 3743807.498 10 0 59193 64800.00000 0 -21808979.131 -13188145.017 514453.227 10 0 59193 65700.00000 0 -21792675.786 -12939835.081 -2724915.004 10 0 59193 66600.00000 0 -21401554.202 -12521752.881 -5911238.805 10 0 59193 67500.00000 0 -20622937.404 -11990343.889 -8982488.242 10 0 59193 68400.00000 0 -19457641.317 -11404567.489 -11878879.390 10 0 59193 69300.00000 0 -17920112.820 -10823216.525 -14544046.913 10 0 59193 70200.00000 0 -16038007.155 -10302257.751 -16926147.870 10 0 59193 71100.00000 0 -13851222.053 -9892306.807 -18978874.597 10 0 59193 72000.00000 0 -11410429.094 -9636345.377 -20662356.486 10 0 59193 72900.00000 0 -8775163.906 -9567777.482 -21943933.200 10 0 59193 73800.00000 0 -6011555.232 -9708907.204 -22798784.650 10 0 59193 74700.00000 0 -3189787.897 -10069901.927 -23210406.072 10 0 59193 75600.00000 0 -381405.374 -10648284.418 -23170919.818 10 0 59193 76500.00000 0 2343436.007 -11428974.708 -22681218.703 10 0 59193 77400.00000 0 4918647.463 -12384879.417 -21750938.929 10 0 59193 78300.00000 0 7284712.251 -13478003.291 -20398263.917 10 0 59193 79200.00000 0 9390911.302 -14661035.853 -18649563.375 10 0 59193 80100.00000 0 11197178.836 -15879346.218 -16538875.052 10 0 59193 81000.00000 0 12675512.400 -17073302.218 -14107239.444 10 0 59193 81900.00000 0 13810880.414 -18180816.402 -11401900.375 10 0 59193 82800.00000 0 14601591.105 -19140012.100 -8475387.013 10 0 59193 83700.00000 0 15059109.293 -19891897.709 -5384494.969 10 0 59193 84600.00000 0 15207330.339 -20382937.034 -2189186.100 10 0 59193 85500.00000 0 15081343.161 -20567407.831 1048571.724 10 0 59194 0.00000 0 14725735.475 -20409449.619 4266002.494 10 0 59194 900.00000 0 14192513.448 -19884714.322 7400734.943 10 0 59194 1800.00000 0 13538723.709 -18981551.507 10392006.068 10 0 59194 2700.00000 0 12823878.498 -17701676.114 13181833.544 10 0 59194 3600.00000 0 12107291.922 -16060292.312 15716133.803 10 0 59194 4500.00000 0 11445439.699 -14085666.100 17945764.798 10 0 59194 5400.00000 0 10889453.049 -11818164.203 19827473.826 10 0 59194 6300.00000 0 10482851.928 -9308797.960 21324732.592 10 0 59194 7200.00000 0 10259612.713 -6617331.655 22408443.842 10 0 59194 8100.00000 0 10242651.481 -3810032.527 23057506.331 10 0 59194 9000.00000 0 10442786.796 -957154.453 23259227.445 10 0 59194 9900.00000 0 10858226.050 1869741.563 23009575.452 10 0 59194 10800.00000 0 11474597.695 4600520.244 22313266.229 10 0 59194 11700.00000 0 12265529.038 7169145.953 21183682.189 10 0 59194 12600.00000 0 13193746.529 9516187.458 19642624.145 10 0 59194 13500.00000 0 14212653.534 11591050.108 17719899.854 10 0 59194 14400.00000 0 15268320.442 13353842.912 15452756.083 10 0 59194 15300.00000 0 16301804.235 14776802.784 12885164.132 10 0 59194 16200.00000 0 17251700.418 15845216.516 10066971.722 10 0 59194 17100.00000 0 18056819.873 16557801.892 7052937.015 10 0 59194 18000.00000 0 18658877.321 16926531.928 3901663.285 10 0 59194 18900.00000 0 19005077.143 16975909.838 674455.056 10 0 59194 19800.00000 0 19050486.158 16741725.688 -2565881.625 10 0 59194 20700.00000 0 18760091.734 16269347.802 -5756270.447 10 0 59194 21600.00000 0 18110456.798 15611622.034 -8834602.650 10 0 59194 22500.00000 0 17090900.401 14826468.797 -11740956.101 10 0 59194 23400.00000 0 15704152.790 13974280.712 -14418770.624 10 0 59194 24300.00000 0 13966456.339 13115232.142 -16815955.753 10 0 59194 25200.00000 0 11907107.378 12306615.481 -18885908.617 10 0 59194 26100.00000 0 9567457.765 11600317.623 -20588421.685 10 0 59194 27000.00000 0 6999417.875 11040543.696 -21890462.757 10 0 59194 27900.00000 0 4263523.572 10661884.298 -22766812.350 10 0 59194 28800.00000 0 1426647.991 10487807.507 -23200546.675 10 0 59194 29700.00000 0 -1440546.495 10529638.696 -23183357.636 10 0 59194 30600.00000 0 -4266310.301 10786070.350 -22715704.549 10 0 59194 31500.00000 0 -6980550.527 11243221.676 -21806795.454 10 0 59194 32400.00000 0 -9517503.408 11875244.591 -20474399.187 10 0 59194 33300.00000 0 -11818225.232 12645449.834 -18744492.432 10 0 59194 34200.00000 0 -13832799.275 13507905.189 -16650749.028 10 0 59194 35100.00000 0 -15522168.453 14409438.135 -14233881.672 10 0 59194 36000.00000 0 -16859518.934 15291958.406 -11540848.826 10 0 59194 36900.00000 0 -17831158.659 16095002.628 -8623942.213 10 0 59194 37800.00000 0 -18436855.763 16758393.942 -5539772.485 10 0 59194 38700.00000 0 -18689624.366 17224904.777 -2348172.556 10 0 59194 39600.00000 0 -18614968.084 17442810.738 888960.205 10 0 59194 40500.00000 0 -18249614.275 17368228.230 4108860.623 10 0 59194 41400.00000 0 -17639793.120 16967137.387 7249108.231 10 0 59194 42300.00000 0 -16839134.514 16217005.123 10248832.220 10 0 59194 43200.00000 0 -15906271.636 15107939.751 13049885.790 10 0 59194 44100.00000 0 -14902252.015 13643328.143 15597967.531 10 0 59194 45000.00000 0 -13887864.878 11839927.984 17843668.452 10 0 59194 45900.00000 0 -12920996.799 9727410.214 19743424.963 10 0 59194 46800.00000 0 -12054126.337 7347369.475 21260359.919 10 0 59194 47700.00000 0 -11332062.482 4751842.441 22364995.910 10 0 59194 48600.00000 0 -10790021.477 2001394.138 23035827.466 10 0 59194 49500.00000 0 -10452122.541 -837149.901 23259741.345 10 0 59194 50400.00000 0 -10330365.645 -3693232.921 23032276.762 10 0 59194 51300.00000 0 -10424134.523 -6495254.257 22357720.252 10 0 59194 52200.00000 0 -10720246.317 -9173304.445 21249032.769 10 0 59194 53100.00000 0 -11193546.554 -11661835.525 19727609.610 10 0 59194 54000.00000 0 -11808025.320 -13902156.398 17822876.781 10 0 59194 54900.00000 0 -12518408.588 -15844649.854 15571730.487 10 0 59194 55800.00000 0 -13272158.508 -17450619.019 13017829.562 10 0 59194 56700.00000 0 -14011798.863 -18693686.119 10210753.585 10 0 59194 57600.00000 0 -14677467.791 -19560684.913 7205042.332 10 0 59194 58500.00000 0 -15209589.744 -20052009.187 4059134.940 10 0 59194 59400.00000 0 -15551553.102 -20181402.599 834229.470 10 0 59194 60300.00000 0 -15652279.181 -19975198.892 -2406914.534 10 0 59194 61200.00000 0 -15468572.639 -19471044.801 -5601206.251 10 0 59194 62100.00000 0 -14967152.366 -18716160.245 -8686461.591 10 0 59194 63000.00000 0 -14126275.440 -17765210.147 -11602623.728 10 0 59194 63900.00000 0 -12936884.128 -16677878.866 -14292941.110 10 0 59194 64800.00000 0 -11403226.269 -15516250.867 -16705079.045 10 0 59194 65700.00000 0 -9542921.896 -14342109.325 -18792142.497 10 0 59194 66600.00000 0 -7386472.618 -13214267.587 -20513589.690 10 0 59194 67500.00000 0 -4976233.884 -12186046.651 -21836018.766 10 0 59194 68400.00000 0 -2364892.910 -11303005.163 -22733812.515 10 0 59194 69300.00000 0 386484.211 -10601017.360 -23189629.216 10 0 59194 70200.00000 0 3210754.837 -10104779.245 -23194730.851 10 0 59194 71100.00000 0 6037255.862 -9826804.927 -22749143.227 10 0 59194 72000.00000 0 8794507.410 -9766954.215 -21861645.727 10 0 59194 72900.00000 0 11412952.279 -9912510.099 -20549591.674 10 0 59194 73800.00000 0 13827618.028 -10238801.666 -18838563.393 10 0 59194 74700.00000 0 15980591.911 -10710345.162 -16761869.085 10 0 59194 75600.00000 0 17823206.913 -11282454.306 -14359891.537 10 0 59194 76500.00000 0 19317849.240 -11903251.389 -11679301.326 10 0 59194 77400.00000 0 20439313.260 -12515994.036 -8772149.823 10 0 59194 78300.00000 0 21175648.892 -13061619.335 -5694859.455 10 0 59194 79200.00000 0 21528467.432 -13481398.047 -2507130.636 10 0 59194 80100.00000 0 21512694.339 -13719586.972 729213.492 10 0 59194 81000.00000 0 21155780.540 -13725967.743 3951422.313 10 0 59194 81900.00000 0 20496406.277 -13458164.998 7097029.986 10 0 59194 82800.00000 0 19582732.594 -12883646.209 10105061.313 10 0 59194 83700.00000 0 18470274.327 -11981318.724 12917208.163 10 0 59194 84600.00000 0 17219484.078 -10742656.369 15478954.015 10 0 59194 85500.00000 0 15893148.487 -9172307.617 17740625.197 10 0 59195 0.00000 0 14553705.810 -7288158.887 19658348.981 10 0 59195 900.00000 0 13260596.980 -5120848.562 21194900.731 10 0 59195 1800.00000 0 12067760.103 -2712751.804 22320423.681 10 0 59195 2700.00000 0 11021374.088 -116474.965 23013008.509 10 0 59195 3600.00000 0 10157943.919 2607077.880 23259121.309 10 0 59195 4500.00000 0 9502808.679 5390988.538 23053871.807 10 0 59195 5400.00000 0 9069134.136 8164864.934 22401116.404 10 0 59195 6300.00000 0 8857432.395 10857534.098 21313393.488 10 0 59195 7200.00000 0 8855629.063 13399777.157 19811691.439 10 0 59195 8100.00000 0 9039675.604 15726993.598 17925052.856 10 0 59195 9000.00000 0 9374681.697 17781684.536 15690021.501 10 0 59195 9900.00000 0 9816520.516 19515651.603 13149941.643 10 0 59195 10800.00000 0 10313839.662 20891819.706 10354122.428 10 0 59195 11700.00000 0 10810393.049 21885607.125 7356882.766 10 0 59195 12600.00000 0 11247595.071 22485785.151 4216495.009 10 0 59195 13500.00000 0 11567188.471 22694790.886 994047.975 10 0 59195 14400.00000 0 11713912.082 22528479.872 -2247748.139 10 0 59195 15300.00000 0 11638054.299 22015328.994 -5445790.829 10 0 59195 16200.00000 0 11297782.695 21195123.621 -8537823.407 10 0 59195 17100.00000 0 10661149.629 20117184.967 -11463656.898 10 0 59195 18000.00000 0 9707687.513 18838213.332 -14166350.675 10 0 59195 18900.00000 0 8429524.933 17419839.248 -16593327.856 10 0 59195 19800.00000 0 6831975.344 15925986.811 -18697402.988 10 0 59195 20700.00000 0 4933572.628 14420161.284 -20437701.532 10 0 59195 21600.00000 0 2765551.352 12962775.857 -21780453.210 10 0 59195 22500.00000 0 370793.041 11608630.376 -22699644.116 10 0 59195 23400.00000 0 -2197717.668 10404647.947 -23177515.398 10 0 59195 24300.00000 0 -4878862.705 9387963.991 -23204899.683 10 0 59195 25200.00000 0 -7605704.157 8584447.029 -22781389.557 10 0 59195 26100.00000 0 -10308045.589 8007712.085 -21915335.694 10 0 59195 27000.00000 0 -12915134.928 7658666.648 -20623675.488 10 0 59195 27900.00000 0 -15358397.093 7525606.716 -18931596.093 10 0 59195 28800.00000 0 -17574083.355 7584857.420 -16872038.891 10 0 59195 29700.00000 0 -19505728.148 7801929.934 -14485055.229 10 0 59195 30600.00000 0 -21106312.145 8133144.869 -11817025.995 10 0 59195 31500.00000 0 -22340042.504 8527652.967 -8919760.183 10 0 59195 32400.00000 0 -23183677.282 8929767.307 -5849489.804 10 0 59195 33300.00000 0 -23627339.901 9281508.339 -2665780.449 10 0 59195 34200.00000 0 -23674790.699 9525254.193 569621.410 10 0 59195 35100.00000 0 -23343145.262 9606384.368 3793982.261 10 0 59195 36000.00000 0 -22662052.193 9475805.210 6944793.534 10 0 59195 36900.00000 0 -21672365.438 9092250.628 9960978.374 10 0 59195 37800.00000 0 -20424367.272 8424260.882 12784070.081 10 0 59195 38700.00000 0 -18975616.638 7451755.762 15359339.785 10 0 59195 39600.00000 0 -17388512.956 6167135.419 17636851.804 10 0 59195 40500.00000 0 -15727677.210 4575861.777 19572426.839 10 0 59195 41400.00000 0 -14057259.476 2696494.923 21128494.886 10 0 59195 42300.00000 0 -12438285.005 560181.591 22274821.820 10 0 59195 43200.00000 0 -10926149.199 -1790384.617 22989096.053 10 0 59195 44100.00000 0 -9568365.532 -4302489.758 23257364.199 10 0 59195 45000.00000 0 -8402660.073 -6915351.110 23074307.284 10 0 59195 45900.00000 0 -7455491.837 -9562414.409 22443351.969 10 0 59195 46800.00000 0 -6741060.600 -12173902.985 21376614.067 10 0 59195 47700.00000 0 -6260843.723 -14679514.109 19894674.657 10 0 59195 48600.00000 0 -6003681.498 -17011151.520 18026192.168 10 0 59195 49500.00000 0 -5946407.665 -19105581.078 15807356.788 10 0 59195 50400.00000 0 -6054998.886 -20906899.043 13281196.742 10 0 59195 51300.00000 0 -6286194.988 -22368709.933 10496748.941 10 0 59195 52200.00000 0 -6589521.666 -23455922.539 7508109.333 10 0 59195 53100.00000 0 -6909630.060 -24146088.271 4373381.131 10 0 59195 54000.00000 0 -7188853.730 -24430225.158 1153541.343 10 0 59195 54900.00000 0 -7369873.970 -24313092.343 -2088751.948 10 0 59195 55800.00000 0 -7398379.433 -23812903.221 -5290387.495 10 0 59195 56700.00000 0 -7225606.025 -22960489.276 -8389039.094 10 0 59195 57600.00000 0 -6810647.927 -21797950.136 -11324388.816 10 0 59195 58500.00000 0 -6122440.431 -20376847.300 -14039310.189 10 0 59195 59400.00000 0 -5141329.231 -18756018.503 -16480987.317 10 0 59195 60300.00000 0 -3860158.586 -16999105.627 -18601947.363 10 0 59195 61200.00000 0 -2284831.461 -15171901.163 -20360985.793 10 0 59195 62100.00000 0 -434317.212 -13339625.491 -21723966.329 10 0 59195 63000.00000 0 1659894.103 -11564249.785 -22664480.341 10 0 59195 63900.00000 0 3954868.248 -9901976.978 -23164353.358 10 0 59195 64800.00000 0 6397789.437 -8400985.987 -23213989.671 10 0 59195 65700.00000 0 8927944.023 -7099532.892 -22812549.207 10 0 59195 66600.00000 0 11479042.672 -6024487.423 -21967954.071 10 0 59195 67500.00000 0 13981784.588 -5190364.493 -20696725.463 10 0 59195 68400.00000 0 16366557.438 -4598889.667 -19023654.725 10 0 59195 69300.00000 0 18566161.049 -4239115.001 -16981315.371 10 0 59195 70200.00000 0 20518442.164 -4088078.672 -14609425.843 10 0 59195 71100.00000 0 22168731.323 -4111979.140 -11954075.415 10 0 59195 72000.00000 0 23471981.086 -4267813.161 -9066828.307 10 0 59195 72900.00000 0 24394517.379 -4505407.655 -6003723.251 10 0 59195 73800.00000 0 24915331.749 -4769759.071 -2824187.758 10 0 59195 74700.00000 0 25026861.402 -5003581.101 410111.938 10 0 59195 75600.00000 0 24735225.237 -5149952.987 3636463.173 10 0 59195 76500.00000 0 24059906.702 -5154956.480 6792318.437 10 0 59195 77400.00000 0 23032897.260 -4970190.115 9816502.895 10 0 59195 78300.00000 0 21697336.724 -4555054.635 12650394.753 10 0 59195 79200.00000 0 20105707.471 -3878712.975 15239055.927 10 0 59195 80100.00000 0 18317658.062 -2921641.911 17532291.496 10 0 59195 81000.00000 0 16397547.002 -1676709.448 19485617.903 10 0 59195 81900.00000 0 14411808.783 -149731.704 21061121.754 10 0 59195 82800.00000 0 12426251.649 1640515.234 22228193.004 10 0 59195 83700.00000 0 10503399.142 3662830.585 22964118.828 10 0 59195 84600.00000 0 8699985.579 5874650.683 23254526.940 10 0 59195 85500.00000 0 7064709.265 8223594.874 23093669.806 99